If you wish to contribute or participate in the discussions about articles you are invited to join SKYbrary as a registered user

 Actions

Broome International Airport

From SKYbrary Wiki

YBRM
Airport
ICAO: YBRM – IATA: BME
Summary
Name Broome International Airport
Region Asia and Pacific
Territory Australia AU.gif
Location Broome, Western Australia
Serving Broome
Elevation 17.069 m
56 ft17.069 m
Coordinates 17° 57' 9.20" S, 122° 14' 1.58" E
Runways
Designator Length Width Surface ROPS
10/28 2458 m8,064.304 ft
45 m147.638 ft
ASP yes/yes


METAR
Observation YBRM 252300Z 19003KT 9999 -RA NSC 24/23 Q1010
Station Broome Airport
Date/Time 25 May 2020 23:00:00
Wind direction 190°
Wind speed 03 kts
Lowest cloud amount nil significant cloud
Temperature 24°C
Dew point 23°C
Humidity 94%
QNH 1010 hPa
Weather condition light rain

Broome International Airport is a regional airport located 0.74 km0.4 nm
740 m
2,427.822 ft
west of the Broome GPO, Western Australia.

Climatology

Hot semi-arid climate (Köppen climate classification BSh)

Maps

Terrain

Loading map...

Airport Layout

Loading map...


Accidents & Serious Incidents at or in vicinity of YBRM

None on SKYbrary